SCR744 EDDL-EDRY

Flight info

Callsign SCR744
Flight time 1h 29m
Altitude 20000
Route KUMIK7T KUMIK L603 BOMBI Z120 OLKAS DCT NORFE
Aircraft C525/L-SDFGRWY/S

Departure

Time 2026-04-15 09:58
Airport Düsseldorf Airport (EDDL)

Arrival

Time 2026-04-15 11:27
Airport Speyer Airfield (EDRY)
Time Latitude Longitude Altitude Speed Heading
2026-04-15 09:44 51.27501 6.75319 120 ft 0 kts 244°
2026-04-15 09:51 51.27500 6.75318 120 ft 1 kts 243°
2026-04-15 09:51 51.27497 6.75298 120 ft 4 kts 265°
2026-04-15 09:52 51.27517 6.75236 120 ft 9 kts 315°
2026-04-15 09:52 51.27589 6.75178 119 ft 14 kts 345°
2026-04-15 09:52 51.27691 6.75192 119 ft 14 kts
2026-04-15 09:53 51.27767 6.75267 118 ft 13 kts 54°
2026-04-15 09:53 51.27825 6.75388 118 ft 15 kts 54°
2026-04-15 09:53 51.27896 6.75532 118 ft 18 kts 53°
2026-04-15 09:53 51.27979 6.75708 118 ft 21 kts 52°
2026-04-15 09:54 51.28075 6.75908 118 ft 24 kts 52°
2026-04-15 09:54 51.28185 6.76140 119 ft 27 kts 53°
2026-04-15 09:54 51.28306 6.76393 121 ft 30 kts 53°
2026-04-15 09:54 51.28441 6.76676 122 ft 32 kts 53°
2026-04-15 09:55 51.28587 6.76980 122 ft 35 kts 52°
2026-04-15 09:55 51.28733 6.77289 122 ft 33 kts 53°
2026-04-15 09:55 51.28871 6.77576 122 ft 31 kts 52°
2026-04-15 09:55 51.28994 6.77840 122 ft 28 kts 54°
2026-04-15 09:56 51.29108 6.78074 124 ft 24 kts 53°
2026-04-15 09:56 51.29222 6.78209 126 ft 18 kts 352°
2026-04-15 09:56 51.29307 6.78025 124 ft 0 kts 238°
2026-04-15 09:57 51.29253 6.77911 123 ft 38 kts 233°
2026-04-15 09:58 51.28950 6.77280 122 ft 103 kts 232°
2026-04-15 09:58 51.28457 6.76163 222 ft 139 kts 232°
2026-04-15 09:58 51.27800 6.74767 508 ft 172 kts 231°
2026-04-15 09:58 51.27038 6.73153 985 ft 192 kts 231°
2026-04-15 09:59 51.26221 6.71413 1680 ft 200 kts 231°
2026-04-15 09:59 51.25400 6.69650 2507 ft 199 kts 231°
2026-04-15 09:59 51.24577 6.67883 3286 ft 201 kts 231°
2026-04-15 09:59 51.23747 6.66103 4018 ft 203 kts 232°
2026-04-15 10:00 51.22825 6.64396 4729 ft 204 kts 214°
2026-04-15 10:00 51.21495 6.63780 5457 ft 203 kts 184°
2026-04-15 10:00 51.20062 6.63793 6106 ft 208 kts 177°
2026-04-15 10:00 51.18602 6.63968 6800 ft 209 kts 175°
2026-04-15 10:01 51.17137 6.64184 7440 ft 213 kts 175°
2026-04-15 10:01 51.15654 6.64416 8049 ft 217 kts 175°
2026-04-15 10:01 51.14216 6.65210 8641 ft 223 kts 143°
2026-04-15 10:01 51.13385 6.67240 9242 ft 227 kts 107°
2026-04-15 10:02 51.13204 6.69770 9818 ft 231 kts 93°
2026-04-15 10:02 51.13221 6.72327 10391 ft 234 kts 89°
2026-04-15 10:02 51.13293 6.74938 10943 ft 237 kts 88°
2026-04-15 10:02 51.13379 6.77551 11465 ft 240 kts 87°
2026-04-15 10:03 51.13473 6.80220 11975 ft 244 kts 87°
2026-04-15 10:03 51.13570 6.82915 12510 ft 245 kts 87°
2026-04-15 10:03 51.13658 6.85651 13013 ft 248 kts 90°
2026-04-15 10:03 51.13352 6.88339 13511 ft 249 kts 108°
2026-04-15 10:04 51.12786 6.90951 13965 ft 252 kts 111°
2026-04-15 10:04 51.12159 6.93554 14472 ft 253 kts 112°
2026-04-15 10:04 51.11518 6.96159 14931 ft 255 kts 112°
2026-04-15 10:04 51.10870 6.98785 15359 ft 258 kts 112°
2026-04-15 10:05 51.10210 7.01462 15811 ft 259 kts 112°
2026-04-15 10:05 51.09554 7.04120 16229 ft 262 kts 111°
2026-04-15 10:05 51.08886 7.06835 16660 ft 263 kts 111°
2026-04-15 10:05 51.08219 7.09543 17022 ft 267 kts 111°
2026-04-15 10:06 51.07547 7.12267 17431 ft 268 kts 111°
2026-04-15 10:06 51.06863 7.15045 17814 ft 270 kts 111°
2026-04-15 10:06 51.06171 7.17849 18182 ft 272 kts 111°
2026-04-15 10:06 51.05465 7.20709 18563 ft 274 kts 111°
2026-04-15 10:07 51.04759 7.23566 18939 ft 276 kts 111°
2026-04-15 10:07 51.04060 7.26392 19280 ft 278 kts 111°
2026-04-15 10:07 51.03344 7.29282 19667 ft 279 kts 111°
2026-04-15 10:07 51.02629 7.32162 20015 ft 280 kts 111°
2026-04-15 10:08 51.01905 7.35077 20177 ft 290 kts 111°
2026-04-15 10:08 51.01146 7.38128 20205 ft 303 kts 111°
2026-04-15 10:08 51.00351 7.41324 20209 ft 316 kts 111°
2026-04-15 10:08 50.99526 7.44630 20205 ft 327 kts 111°
2026-04-15 10:09 50.98678 7.48026 20202 ft 337 kts 111°
2026-04-15 10:09 50.97802 7.51530 20204 ft 345 kts 111°
2026-04-15 10:09 50.96815 7.55085 20180 ft 352 kts 120°
2026-04-15 10:09 50.95090 7.57873 20200 ft 355 kts 146°
2026-04-15 10:10 50.92915 7.59725 20201 ft 359 kts 155°
2026-04-15 10:10 50.90612 7.61303 20199 ft 363 kts 158°
2026-04-15 10:10 50.88237 7.62791 20199 ft 366 kts 160°
2026-04-15 10:10 50.85865 7.64213 20200 ft 369 kts 160°
2026-04-15 10:11 50.83435 7.65633 20203 ft 371 kts 161°
2026-04-15 10:11 50.80996 7.67034 20204 ft 373 kts 162°
2026-04-15 10:11 50.78565 7.68413 20205 ft 374 kts 162°
2026-04-15 10:11 50.76092 7.69803 20206 ft 376 kts 162°
2026-04-15 10:12 50.73624 7.71180 20206 ft 377 kts 162°
2026-04-15 10:12 50.71131 7.72564 20208 ft 378 kts 162°
2026-04-15 10:12 50.68647 7.73937 20207 ft 378 kts 162°
2026-04-15 10:12 50.66167 7.75303 20210 ft 379 kts 162°
2026-04-15 10:13 50.63652 7.76684 20209 ft 380 kts 162°
2026-04-15 10:13 50.61141 7.78060 20210 ft 380 kts 162°
2026-04-15 10:13 50.58579 7.79461 20209 ft 380 kts 162°
2026-04-15 10:13 50.56092 7.80819 20209 ft 380 kts 162°
2026-04-15 10:14 50.53567 7.82195 20209 ft 381 kts 162°
2026-04-15 10:14 50.51033 7.83574 20206 ft 381 kts 162°
2026-04-15 10:14 50.48520 7.84939 20207 ft 381 kts 162°
2026-04-15 10:14 50.46002 7.86306 20206 ft 381 kts 162°
2026-04-15 10:15 50.43550 7.87636 20192 ft 365 kts 162°
2026-04-15 10:15 50.41190 7.88915 20193 ft 350 kts 162°
2026-04-15 10:15 50.38909 7.90149 20195 ft 337 kts 162°
2026-04-15 10:15 50.36730 7.91329 20073 ft 331 kts 162°
2026-04-15 10:16 50.34513 7.92539 19554 ft 338 kts 161°
2026-04-15 10:16 50.32274 7.93781 19150 ft 339 kts 161°
2026-04-15 10:16 50.30080 7.95031 19043 ft 331 kts 160°
2026-04-15 10:16 50.27895 7.96323 18823 ft 329 kts 160°
2026-04-15 10:17 50.25773 7.97633 18382 ft 333 kts 159°
2026-04-15 10:17 50.23613 7.99033 18062 ft 332 kts 158°
2026-04-15 10:17 50.21533 8.00447 17948 ft 326 kts 157°
2026-04-15 10:17 50.19484 8.01913 17723 ft 324 kts 155°
2026-04-15 10:18 50.17441 8.03455 17351 ft 326 kts 154°
2026-04-15 10:18 50.15421 8.05069 17019 ft 327 kts 153°
2026-04-15 10:18 50.13434 8.06757 16827 ft 323 kts 151°
2026-04-15 10:18 50.11476 8.08531 16607 ft 321 kts 149°
2026-04-15 10:19 50.09574 8.10372 16294 ft 322 kts 148°
2026-04-15 10:19 50.07686 8.12332 16011 ft 322 kts 146°
2026-04-15 10:19 50.05880 8.14350 15800 ft 319 kts 144°
2026-04-15 10:19 50.04117 8.16475 15551 ft 318 kts 142°
2026-04-15 10:20 50.02415 8.18694 15278 ft 318 kts 140°
2026-04-15 10:20 50.00763 8.21034 15030 ft 318 kts 137°
2026-04-15 10:20 49.99202 8.23451 14830 ft 315 kts 134°
2026-04-15 10:20 49.97722 8.25957 14592 ft 315 kts 131°
2026-04-15 10:21 49.96322 8.28572 14336 ft 314 kts 129°
2026-04-15 10:21 49.95004 8.31306 14084 ft 314 kts 126°
2026-04-15 10:21 49.93795 8.34113 13862 ft 312 kts 122°
2026-04-15 10:21 49.92677 8.37047 13627 ft 311 kts 119°
2026-04-15 10:22 49.91684 8.40039 13369 ft 312 kts 116°
2026-04-15 10:22 49.90813 8.43104 13116 ft 311 kts 112°
2026-04-15 10:22 49.90059 8.46281 12858 ft 311 kts 108°
2026-04-15 10:22 49.89461 8.49510 12619 ft 310 kts 104°
2026-04-15 10:23 49.89030 8.52790 12413 ft 309 kts 99°
2026-04-15 10:23 49.88776 8.56077 12194 ft 308 kts 94°
2026-04-15 10:23 49.88701 8.59416 11934 ft 308 kts 89°
2026-04-15 10:23 49.88813 8.62735 11700 ft 308 kts 84°
2026-04-15 10:24 49.89116 8.66010 11544 ft 304 kts 79°
2026-04-15 10:24 49.89605 8.69190 11359 ft 303 kts 74°
2026-04-15 10:24 49.90288 8.72270 11082 ft 304 kts 68°
2026-04-15 10:24 49.91184 8.75259 10859 ft 303 kts 62°
2026-04-15 10:25 49.92270 8.78042 10692 ft 300 kts 56°
2026-04-15 10:25 49.93541 8.80627 10456 ft 301 kts 50°
2026-04-15 10:25 49.94985 8.82979 10187 ft 302 kts 44°
2026-04-15 10:25 49.96603 8.85082 9999 ft 300 kts 37°
2026-04-15 10:26 49.98360 8.86825 9800 ft 299 kts 29°
2026-04-15 10:26 50.00259 8.88191 9564 ft 300 kts 21°
2026-04-15 10:26 50.02282 8.89135 9335 ft 300 kts 13°
2026-04-15 10:26 50.04359 8.89611 9138 ft 300 kts
2026-04-15 10:27 50.06449 8.89622 8931 ft 300 kts 357°
2026-04-15 10:27 50.08505 8.89172 8741 ft 299 kts 348°
2026-04-15 10:27 50.10511 8.88222 8553 ft 298 kts 339°
2026-04-15 10:27 50.12371 8.86783 8334 ft 299 kts 329°
2026-04-15 10:28 50.14035 8.84899 8145 ft 298 kts 319°
2026-04-15 10:28 50.15503 8.82543 7946 ft 297 kts 309°
2026-04-15 10:28 50.16658 8.79876 7753 ft 297 kts 299°
2026-04-15 10:28 50.17497 8.76885 7557 ft 296 kts 288°
2026-04-15 10:29 50.17954 8.73796 7222 ft 297 kts 276°
2026-04-15 10:29 50.17571 8.70707 6714 ft 284 kts 244°
2026-04-15 10:29 50.16332 8.68448 6195 ft 268 kts 214°
2026-04-15 10:29 50.14691 8.67276 5711 ft 257 kts 199°
2026-04-15 10:30 50.13033 8.66425 5235 ft 249 kts 196°
2026-04-15 10:30 50.04569 8.62545 3737 ft 242 kts 195°
2026-04-15 10:30 49.87968 8.54808 3680 ft 227 kts 195°
2026-04-15 10:30 49.86364 8.54043 3136 ft 246 kts 195°
2026-04-15 10:31 49.66064 8.44442 4044 ft 238 kts 195°
2026-04-15 10:31 49.64383 8.43669 3204 ft 265 kts 195°
2026-04-15 10:31 49.54231 8.39021 2921 ft 257 kts 195°
2026-04-15 10:31 49.52573 8.38251 3009 ft 245 kts 195°
2026-04-15 10:32 49.51008 8.37545 3028 ft 237 kts 192°
2026-04-15 11:23 49.50125 8.37445 3011 ft 227 kts 172°
2026-04-15 11:23 49.48657 8.37908 3023 ft 205 kts 169°
2026-04-15 11:23 49.47311 8.38305 3017 ft 190 kts 165°
2026-04-15 11:23 49.46046 8.38797 3029 ft 186 kts 163°
2026-04-15 11:24 49.44772 8.39335 3038 ft 192 kts 162°
2026-04-15 11:24 49.43416 8.39916 3053 ft 207 kts 162°
2026-04-15 11:24 49.42013 8.40496 3042 ft 209 kts 163°
2026-04-15 11:24 49.40575 8.41077 2660 ft 215 kts 163°
2026-04-15 11:25 49.39122 8.41666 2307 ft 213 kts 163°
2026-04-15 11:25 49.37698 8.42244 1970 ft 210 kts 163°
2026-04-15 11:25 49.36337 8.42795 1626 ft 192 kts 163°
2026-04-15 11:25 49.35169 8.43269 1364 ft 165 kts 162°
2026-04-15 11:26 49.34175 8.43671 1182 ft 134 kts 162°
2026-04-15 11:26 49.33315 8.44022 934 ft 117 kts 162°
2026-04-15 11:26 49.32560 8.44319 732 ft 109 kts 161°
2026-04-15 11:26 49.31859 8.44607 558 ft 101 kts 161°
2026-04-15 11:27 49.31184 8.44883 429 ft 100 kts 161°
2026-04-15 11:27 49.30506 8.45162 317 ft 96 kts 161°
2026-04-15 11:27 49.29923 8.45398 311 ft 73 kts 159°
2026-04-15 11:27 49.29636 8.45523 310 ft 36 kts 166°
2026-04-15 11:28 49.29632 8.45641 309 ft 14 kts 354°
2026-04-15 11:28 49.29731 8.45603 310 ft 15 kts 348°
2026-04-15 11:28 49.29840 8.45556 310 ft 17 kts 349°
2026-04-15 11:28 49.29957 8.45509 310 ft 17 kts 337°
2026-04-15 11:29 49.30073 8.45468 311 ft 15 kts 348°
2026-04-15 11:29 49.30179 8.45416 311 ft 16 kts 341°
2026-04-15 11:29 49.30257 8.45442 311 ft 10 kts 78°
2026-04-15 11:29 49.30276 8.45435 311 ft 0 kts 257°